TimeEDT,TemperatureF,Dew PointF,Humidity,Sea Level PressureIn,VisibilityMPH,Wind Direction,Wind SpeedMPH,Gust SpeedMPH,PrecipitationIn,Events,Conditions,WindDirDegrees,DateUTC
12:07 AM,57.2,55.4,94,29.89,10.0,South,6.9,-,N/A,,Overcast,170,2012-10-03 04:07:00
12:46 AM,57.2,55.4,94,29.89,7.0,SSE,6.9,-,N/A,,Overcast,160,2012-10-03 04:46:00
12:54 AM,57.9,55.9,93,29.89,7.0,South,8.1,-,N/A,,Overcast,170,2012-10-03 04:54:00
1:01 AM,57.2,55.4,94,29.89,8.0,South,6.9,-,N/A,,Overcast,170,2012-10-03 05:01:00
1:29 AM,57.2,55.4,94,29.89,8.0,SSE,6.9,-,N/A,,Overcast,150,2012-10-03 05:29:00
1:37 AM,57.2,55.4,94,29.89,7.0,SSE,6.9,-,N/A,,Overcast,150,2012-10-03 05:37:00
1:54 AM,57.0,55.9,96,29.89,7.0,SSE,5.8,-,N/A,,Overcast,160,2012-10-03 05:54:00
2:09 AM,57.2,55.4,94,29.90,6.0,SSE,5.8,-,N/A,,Overcast,160,2012-10-03 06:09:00
2:21 AM,57.2,55.4,94,29.90,6.0,SSE,5.8,-,N/A,,Overcast,160,2012-10-03 06:21:00
2:54 AM,57.0,55.9,96,29.91,6.0,South,6.9,-,N/A,,Overcast,180,2012-10-03 06:54:00
3:54 AM,57.0,55.0,93,29.91,9.0,South,10.4,-,N/A,,Overcast,180,2012-10-03 07:54:00
4:01 AM,57.2,55.4,94,29.92,8.0,South,11.5,-,N/A,,Overcast,180,2012-10-03 08:01:00
4:54 AM,57.2,55.4,94,29.93,6.0,South,8.1,-,N/A,,Overcast,190,2012-10-03 08:54:00
5:01 AM,57.2,55.4,94,29.93,7.0,South,9.2,-,N/A,,Overcast,190,2012-10-03 09:01:00
5:16 AM,57.2,53.6,88,29.94,10.0,South,10.4,-,N/A,,Overcast,190,2012-10-03 09:16:00
5:30 AM,57.2,53.6,88,29.94,10.0,South,10.4,-,N/A,,Overcast,190,2012-10-03 09:30:00
5:54 AM,57.0,54.0,89,29.95,10.0,South,8.1,-,N/A,,Overcast,180,2012-10-03 09:54:00
6:17 AM,55.4,53.6,94,29.96,9.0,South,10.4,-,N/A,,Overcast,180,2012-10-03 10:17:00
6:40 AM,55.4,53.6,94,29.96,7.0,South,9.2,-,0.00,,Light Drizzle,180,2012-10-03 10:40:00
6:54 AM,55.9,54.0,93,29.96,5.0,South,9.2,-,0.00,,Light Drizzle,180,2012-10-03 10:54:00
7:25 AM,55.4,53.6,94,29.98,7.0,South,10.4,-,0.00,,Overcast,180,2012-10-03 11:25:00
7:54 AM,55.9,54.0,93,29.98,5.0,South,9.2,-,0.00,,Overcast,180,2012-10-03 11:54:00
8:54 AM,55.9,54.0,93,30.00,7.0,South,10.4,-,N/A,,Overcast,180,2012-10-03 12:54:00
9:27 AM,55.4,55.4,100,30.01,2.5,South,9.2,-,0.00,,Light Drizzle,180,2012-10-03 13:27:00
9:54 AM,55.9,55.0,97,30.02,2.0,South,10.4,-,0.00,,Light Drizzle,190,2012-10-03 13:54:00
10:33 AM,57.2,55.4,94,30.03,5.0,SSW,12.7,-,0.00,,Overcast,200,2012-10-03 14:33:00
10:54 AM,57.2,55.4,94,30.03,7.0,SSW,13.8,-,N/A,,Overcast,200,2012-10-03 14:54:00
11:25 AM,60.8,55.4,82,30.03,10.0,SSW,15.0,-,N/A,,Mostly Cloudy,200,2012-10-03 15:25:00
11:54 AM,61.0,55.0,81,30.04,10.0,SSW,11.5,-,N/A,,Mostly Cloudy,210,2012-10-03 15:54:00
12:52 PM,62.6,55.4,77,30.04,10.0,SSW,13.8,-,N/A,,Overcast,210,2012-10-03 16:52:00
12:54 PM,63.0,55.0,75,30.04,10.0,SW,16.1,-,N/A,,Mostly Cloudy,220,2012-10-03 16:54:00
1:54 PM,66.0,54.0,65,30.03,10.0,SW,11.5,-,N/A,,Mostly Cloudy,220,2012-10-03 17:54:00
2:54 PM,66.9,55.0,66,30.02,10.0,SW,12.7,-,N/A,,Mostly Cloudy,220,2012-10-03 18:54:00
3:54 PM,69.8,53.6,56,30.02,10.0,SSW,16.1,-,N/A,,Mostly Cloudy,200,2012-10-03 19:54:00
4:54 PM,68.0,53.1,59,30.02,10.0,SSW,10.4,-,N/A,,Mostly Cloudy,210,2012-10-03 20:54:00
5:54 PM,69.1,52.0,54,30.02,10.0,SSW,10.4,-,N/A,,Scattered Clouds,210,2012-10-03 21:54:00
6:54 PM,64.9,53.1,65,30.04,10.0,South,6.9,-,N/A,,Scattered Clouds,190,2012-10-03 22:54:00
7:54 PM,64.0,52.0,65,30.04,10.0,SSE,8.1,-,N/A,,Scattered Clouds,160,2012-10-03 23:54:00
8:54 PM,63.0,52.0,67,30.05,10.0,SSE,9.2,-,N/A,,Scattered Clouds,160,2012-10-04 00:54:00
9:54 PM,62.1,52.0,70,30.08,10.0,South,11.5,-,N/A,,Scattered Clouds,170,2012-10-04 01:54:00
10:54 PM,61.0,51.1,70,30.08,10.0,South,10.4,-,N/A,,Partly Cloudy,180,2012-10-04 02:54:00
11:54 PM,61.0,51.1,70,30.09,10.0,South,10.4,-,N/A,,Partly Cloudy,190,2012-10-04 03:54:00